Location: *
(37.5724°S, 58.0067°E)
Time: 04:03:17
(UTC+00:00)

Hubble Space Telescope - Visible Passes

Search period start: 19 May 2021 00:00
Search period end: 29 May 2021 00:00
Orbit: 535 x 539 km, 28.5° (Epoch: 18 May)

Date Brightness Start Highest point End Pass type
(mag) Time Alt. Az. Time Alt. Az. Time Alt. Az.
19 May 2.8 14:07:20 10° NW 14:10:25 20° N 14:13:22 11° NE visible
19 May 3.5 15:47:44 10° NW 15:48:41 14° NW 15:48:41 14° NW visible
20 May 2.7 13:56:12 10° NW 13:59:24 21° N 14:02:37 10° ENE visible
20 May 3.2 15:36:48 10° WNW 15:38:24 17° NW 15:38:24 17° NW visible
21 May 2.7 13:45:05 10° NW 13:48:22 22° N 13:51:40 10° ENE visible
21 May 3.0 15:25:53 10° WNW 15:28:08 19° NNW 15:28:08 19° NNW visible
22 May 2.7 13:34:02 10° NW 13:37:21 23° N 13:40:41 10° NE visible
22 May 2.9 15:15:02 10° NW 15:17:56 19° NNW 15:17:56 19° NNW visible
23 May 3.0 15:04:14 10° NW 15:06:56 17° NNW 15:07:47 16° N visible
24 May 3.3 14:53:31 10° NW 14:55:53 15° NNW 14:57:44 12° NNE visible
25 May 3.5 14:42:57 10° NW 14:44:49 13° NNW 14:46:42 10° N visible
26 May 3.7 14:32:49 10° NNW 14:33:46 11° NNW 14:34:43 10° N visible
